Location: Leipzig
(51.3397°N, 12.3731°E)
Time: 06:41:16
(UTC+02:00)

ISS - Visible Passes

Search period start: 15 September 2024 00:00
Search period end: 25 September 2024 00:00
Orbit: 414 x 424 km, 51.6° (Epoch: 15 September)

Date Brightness Start Highest point End Pass type
(mag) Time Alt. Az. Time Alt. Az. Time Alt. Az.
15 Sep -2.6 19:53:27 10° SSW 19:56:21 28° SSE 19:59:17 10° E visible
15 Sep -3.9 21:29:32 10° WSW 21:32:48 79° SSW 21:32:48 79° SSW visible
16 Sep -3.8 20:42:06 10° WSW 20:45:26 66° SSE 20:47:14 25° E visible
16 Sep -1.4 22:18:53 10° W 22:20:12 22° W 22:20:12 22° W visible
17 Sep -3.4 19:54:46 10° SW 19:58:03 51° SSE 20:01:20 10° E visible
17 Sep -3.7 21:31:25 10° W 21:34:36 77° WNW 21:34:36 77° WNW visible
18 Sep -3.8 20:44:01 10° W 20:47:23 89° NNW 20:49:00 29° E visible
18 Sep -1.2 22:20:52 10° W 22:21:58 19° W 22:21:58 19° W visible
19 Sep -3.8 19:56:39 10° WSW 20:00:01 81° SSE 20:03:23 10° E visible
19 Sep -3.3 21:33:29 10° W 21:36:21 61° W 21:36:21 61° W visible
20 Sep -3.8 20:46:10 10° W 20:49:32 83° N 20:50:46 36° E visible
20 Sep -0.9 22:23:00 10° W 22:23:44 15° W 22:23:44 15° W visible
21 Sep -3.7 19:58:52 10° W 20:02:14 83° N 20:05:13 13° E visible
21 Sep -2.7 21:35:43 10° W 21:38:11 44° W 21:38:11 44° W visible
22 Sep -3.8 20:48:27 10° W 20:51:50 81° SSW 20:52:41 48° ESE visible
22 Sep -0.5 22:25:27 10° W 22:25:39 11° W 22:25:39 11° W visible
23 Sep -3.8 20:01:15 10° W 20:04:37 89° NNE 20:07:13 16° E visible
23 Sep -2.0 21:38:08 10° W 21:40:11 29° WSW 21:40:11 29° WSW visible
24 Sep -3.3 20:50:55 10° W 20:54:12 51° SSW 20:54:48 44° SSE visible
